User: anonymous
Location: Caltech
(34.1382°N, 118.1253°W)
Time: 04:46:18
(UTC-07:00)
Language:

ADEOS II - Orbit

View from above orbital plane
View from above orbital plane
View from above satellite
View from above satellite

Ground track
Ground track

The orbit data is extracted from the following two-line orbital elements,

1 27597U 02056A   14233.58887384  .00000119  00000-0  65963-4 0  3748
2 27597 098.2760 237.9900 0002247 113.1400 354.1779 14.26841247608424
Epoch (UTC): 21 August 2014 14:07:58
Eccentricity: 0.0002247
inclination: 98.2760°
perigee height: 800 km
apogee height: 804 km
right ascension of ascending node: 237.9900°
argument of perigee: 113.1400°
revolutions per day: 14.26841247
mean anomaly at epoch: 354.1779°
orbit number at epoch: 60842

The dashed part of the orbit path shows where the satellite is in the earth's shadow,  

DLR